{"data":{"norad_id":60539,"epoch":"2026-09-22T16:47:05.518752Z","epoch_age_seconds":98940,"freshness":"FRESH","line1":"1 60539U 24149BZ  26265.69936943  .00002647  00000+0  21698-3 0  9990","line2":"2 60539  97.6735 341.3032 0010840  77.7746 282.4691 15.00071967114733","mean_motion":15.00071967,"eccentricity":0.001084,"inclination_deg":97.6735,"raan_deg":341.3032,"arg_perigee_deg":77.7746,"mean_anomaly_deg":282.4691,"bstar":0.00021698,"rev_number":11473,"period_min":95.995394332971,"perigee_km":559.14603997062,"apogee_km":574.20239068545,"semimajor_km":6944.811215328,"source":"CELESTRAK","updated_at":"2026-09-23T09:00:20.670764Z"}}